Madison, WI

7:04 PM CST on November 18, 2019 (GMT -0600)
Dane County Regional-Truax

Weather History for KMSN - July, 2019

Change the Weather History Date:

Monday, July 15, 2019

  Actual Average Record
Temperature  
Mean Temperature 81 °F 72 °F  
Max Temperature 88 °F 82 °F 100 °F (1988)
Min Temperature 74 °F 61 °F 41 °F (1967)
Degree Days  
Heating Degree Days 0 0  
Month to date heating degree days 0 0  
Since 1 June heating degree days 42 60  
Since 1 July heating degree days 0 0  
Cooling Degree Days 16 7  
Month to date cooling degree days 158 103  
Year to date cooling degree days 276 253  
Since 1 June cooling degree days 256 223  
Growing Degree Days 30 (Base 50)    
Moisture  
Dew Point 68 °F    
Average Humidity 67    
Maximum Humidity 87    
Minimum Humidity 46    
Precipitation  
Precipitation 0.00 in 0.13 in 2.69 in (1950)
Month to date precipitation 2.14 2.10  
Year to date precipitation 23.11 18.47  
Snow  
Snow 0.00 in 0.00 in 0.00 in (2018)
Month to date snowfall 0.0 0.0  
Since 1 June snowfall 0.0 0.0  
Since 1 July snowfall 0.0 0.0  
Snow Depth 0.00 in    
Sea Level Pressure  
Sea Level Pressure 29.96 in    
Wind  
Wind Speed 10 mph (SSW)    
Max Wind Speed 20 mph    
Max Gust Speed 29 mph    
Visibility 10 miles    
Events      
T = Trace of Precipitation, MM = Missing Value Source: NWS Daily Summary

Daily Weather History Graph

Daily Weather History Graph

Search for Another Location

Airport or City:

Astronomy

Jul. 15, 2019 Rise Set
Actual Time 5:31 AM CDT 8:35 PM CDT
Civil Twilight 4:56 AM CDT 9:09 PM CDT
Nautical Twilight 4:13 AM CDT 9:52 PM CDT
Astronomical Twilight 3:20 AM CDT 10:44 PM CDT
Moon 7:53 PM CDT (7/15) 4:18 AM CDT (7/15)
Length of Visible Light 16h 12m
Length of Day
15h 03m
Waxing Gibbous, 99% of the Moon is Illuminated
Jul 15
Waxing Gibbous
Jul 16
Full
Jul 24
Last Quarter
Jul 31
New
Aug 7
First Quarter

Hourly Weather History & Observations

Time (CDT) Temp. Heat Index Dew Point Humidity Pressure Visibility Wind Dir Wind Speed Gust Speed Precip Events Conditions
12:53 AM 75.9 °F - 66.9 °F 74% 30.01 in 10.0 mi South 10.4 mph - N/A   Clear
1:53 AM 75.0 °F - 68.0 °F 79% 30.00 in 10.0 mi South 10.4 mph - N/A   Clear
2:53 AM 73.9 °F - 68.0 °F 82% 30.00 in 10.0 mi Calm Calm - N/A   Clear
3:53 AM 73.9 °F - 68.0 °F 82% 29.98 in 10.0 mi South 9.2 mph - N/A   Clear
4:53 AM 75.0 °F - 68.0 °F 79% 29.99 in 10.0 mi SSW 10.4 mph - N/A   Clear
5:53 AM 73.9 °F - 69.1 °F 85% 30.00 in 10.0 mi SSW 6.9 mph - N/A   Mostly Cloudy
6:53 AM 75.0 °F - 69.1 °F 82% 30.01 in 10.0 mi SW 6.9 mph - N/A   Mostly Cloudy
7:53 AM 77.0 °F - 70.0 °F 79% 30.02 in 10.0 mi SW 8.1 mph - N/A   Mostly Cloudy
8:53 AM 79.0 °F - 70.0 °F 74% 30.01 in 10.0 mi WSW 9.2 mph - N/A   Mostly Cloudy
9:53 AM 81.0 °F 84.9 °F 71.1 °F 72% 30.01 in 10.0 mi WSW 8.1 mph - N/A   Mostly Cloudy
10:53 AM 81.0 °F 84.9 °F 71.1 °F 72% 29.99 in 10.0 mi SW 8.1 mph - N/A   Mostly Cloudy
11:53 AM 82.9 °F 87.0 °F 70.0 °F 65% 29.98 in 10.0 mi South 13.8 mph - N/A   Mostly Cloudy
12:53 PM 84.9 °F 89.4 °F 70.0 °F 61% 29.96 in 10.0 mi SW 9.2 mph - N/A   Mostly Cloudy
1:53 PM 86.0 °F 88.2 °F 66.0 °F 51% 29.94 in 10.0 mi SSW 12.7 mph - N/A   Mostly Cloudy
2:53 PM 87.1 °F 88.9 °F 64.9 °F 48% 29.93 in 10.0 mi SW 11.5 mph 24.2 mph N/A   Mostly Cloudy
3:53 PM 87.1 °F 89.2 °F 66.0 °F 49% 29.92 in 10.0 mi SW 12.7 mph 27.6 mph N/A   Scattered Clouds
4:53 PM 87.1 °F 88.9 °F 64.9 °F 48% 29.91 in 10.0 mi SSW 13.8 mph 25.3 mph N/A   Scattered Clouds
5:53 PM 87.1 °F 89.2 °F 66.0 °F 49% 29.91 in 10.0 mi SW 11.5 mph 23.0 mph N/A   Scattered Clouds
6:53 PM 86.0 °F 88.2 °F 66.0 °F 51% 29.89 in 10.0 mi SSW 10.4 mph 20.7 mph N/A   Scattered Clouds
7:53 PM 84.0 °F 86.3 °F 66.0 °F 55% 29.89 in 10.0 mi SSW 10.4 mph - N/A   Partly Cloudy
8:53 PM 82.9 °F 85.0 °F 66.0 °F 56% 29.91 in 10.0 mi SSW 6.9 mph - N/A   Mostly Cloudy
9:53 PM 81.0 °F 83.0 °F 66.0 °F 60% 29.94 in 10.0 mi SSW 15.0 mph 25.3 mph N/A   Mostly Cloudy
10:53 PM 79.0 °F - 64.9 °F 62% 29.94 in 10.0 mi SSW 13.8 mph 25.3 mph N/A   Mostly Cloudy
11:53 PM 78.1 °F - 64.9 °F 64% 29.96 in 10.0 mi SW 11.5 mph 20.7 mph N/A   Clear